Location: Tel Aviv
(32.0670°N, 34.7670°E)
Time: 18:16:53
(UTC+03:00)

Vanguard 1 Rocket - Visible Passes

Search period start: 19 July 2025 00:00
Search period end: 29 July 2025 00:00
Orbit: 651 x 4216 km, 34.3° (Epoch: 18 July)

Date Brightness Start Highest point End Pass type
(mag) Time Alt. Az. Time Alt. Az. Time Alt. Az.
19 Jul 9.2 00:49:32 10° WNW 00:54:25 31° WNW 00:54:25 31° WNW visible
19 Jul 9.1 20:59:56 10° WSW 21:18:39 85° SSE 21:27:46 10° ENE visible
19 Jul 8.0 23:34:00 10° W 23:45:52 78° N 23:46:03 78° NNE visible
20 Jul 9.7 19:42:47 10° WSW 20:04:32 72° SSE 20:15:43 10° ENE visible
20 Jul 8.7 22:17:18 10° W 22:32:45 80° N 22:37:38 29° ENE visible
21 Jul 9.3 00:49:52 10° WNW 00:54:48 30° WNW 00:54:48 30° WNW visible
21 Jul 9.2 20:59:50 10° WSW 21:19:06 88° N 21:28:28 10° ENE visible
21 Jul 8.1 23:34:16 10° W 23:46:21 82° NNW 23:46:21 82° NNW visible
22 Jul 9.7 19:42:19 10° WSW 20:04:49 80° SSE 20:16:24 10° ENE visible
22 Jul 8.7 22:17:30 10° W 22:33:21 79° N 22:37:53 33° E visible
23 Jul 9.4 00:50:10 10° WNW 00:55:02 28° W 00:55:02 28° W visible
23 Jul 9.3 20:59:51 10° W 21:19:33 84° N 21:29:11 10° E visible
23 Jul 8.2 23:34:29 10° WNW 23:46:32 80° WNW 23:46:32 80° WNW visible
24 Jul 9.8 19:42:02 10° WSW 20:05:07 87° SSE 20:17:02 10° ENE visible
24 Jul 8.8 22:17:41 10° W 22:33:57 81° N 22:38:01 39° E visible
25 Jul 9.6 00:50:30 10° WNW 00:55:09 26° W 00:55:09 26° W visible
25 Jul 9.4 20:59:56 10° W 21:20:03 82° N 21:29:29 12° E visible
25 Jul 8.4 23:34:40 10° WNW 23:46:38 71° W 23:46:38 71° W visible
26 Jul 9.9 19:41:54 10° WSW 20:05:26 88° NNW 20:17:43 10° ENE visible
26 Jul 8.7 22:17:49 10° W 22:34:31 85° N 22:38:05 45° E visible
27 Jul 9.8 00:50:52 10° WNW 00:55:14 23° W 00:55:14 23° W visible
27 Jul 9.4 21:00:02 10° W 21:20:34 82° N 21:29:32 16° E visible
27 Jul 8.6 23:34:48 10° WNW 23:46:41 62° WSW 23:46:41 62° WSW visible
28 Jul 10.0 19:41:53 10° W 20:05:47 85° N 20:18:23 10° E visible
28 Jul 8.6 22:17:54 10° WNW 22:35:02 89° SSW 22:38:07 52° ESE visible
